Home > Time Zones > World Clock > Weather > Germany > Ulm > Past weeks

Flag for Germany Weather past 2 weeks in Ulm, Baden-Württemberg, Germany

Now
57 °F

Refreshingly cool.


Feels Like: 55 °F
Forecast: 48 / 59 °F
Wind: 10 mph from West

Location: Laupheim Airport

Current Time: Sep 5, 2015 at 12:30:17 PM

Latest Report: Sep 5, 2015 at 11:20 AM


Visibility: 4 mi

Pressure: 30.07 "Hg

Humidity: 55%

Dew point: 41 °F

Location of UlmLocation

Historic Weather in Ulm — Graph

°F

Ulm temperature yesterday

Maximum temperature yesterday: 66 °F (at 3:20 PM)
Minimum temperature yesterday: 52 °F (at 3:20 AM)
Average temperature yesterday: 57 °F

Past Weeks' High & Low Weather Summary

 TemperatureHumidityPressure
High90 °F (Aug 30, 3:20 PM)100% (Aug 22, 4:20 AM)30.27 "Hg (Aug 22, 4:20 AM)
Low46 °F (Aug 26, 5:20 AM)24% (Aug 31, 5:20 PM)29.74 "Hg (Aug 24, 8:20 AM)
Average65 °F69%30.03 "Hg
* Reported Aug 21 11:20 AM — Sep 5 11:20 AM, Ulm, Weather by CustomWeather, © 2015

Note: Actual official high and low records may vary slightly from our data, if they occured in-between our weather recording intervals... More about our weather records

Advertising

Ulm weather history for previous 24 hours

 ConditionsComfort  
Time TempWeatherWind HumidityBarometerVisibility
11:20 AM
Sat, Sep 5
57 °FRefreshingly cool.10 mph55%30.07 "Hg4 mi
10:20 AM54 °FCool.6 mph67%30.07 "Hg4 mi
9:20 AM52 °FCool.7 mph67%30.04 "Hg4 mi
8:20 AM52 °FCool.6 mph67%30.04 "Hg4 mi
7:20 AM52 °FCool.5 mph72%30.04 "Hg4 mi
6:20 AM52 °FCool.3 mph72%30.01 "Hg4 mi
5:20 AM52 °FCool.5 mph72%30.01 "Hg4 mi
4:20 AM54 °FCool.3 mph63%30.01 "Hg4 mi
3:20 AM54 °FCool.2 mph63%30.01 "Hg4 mi
2:20 AM54 °FCool.2 mph63%30.01 "Hg4 mi
1:20 AM55 °FRefreshingly cool.1 mph59%30.01 "Hg4 mi
12:20 AM55 °FRefreshingly cool.1 mph59%30.01 "Hg4 mi
11:20 PM
Fri, Sep 4
55 °FRefreshingly cool.2 mph59%30.01 "Hg4 mi
10:20 PM55 °FCool.2 mph63%30.01 "Hg4 mi
9:20 PM55 °FCool.3 mph63%30.01 "Hg4 mi
8:20 PM59 °FRefreshingly cool.6 mph55%29.98 "Hg5 mi
7:20 PM63 °FPassing clouds.3 mph49%29.98 "HgN/A
6:20 PM64 °FPassing clouds.5 mph46%29.98 "HgN/A
5:20 PM66 °FPassing clouds.7 mph46%29.95 "HgN/A
4:20 PM66 °FScattered clouds.3 mph46%29.98 "HgN/A
3:20 PM66 °FScattered clouds.8 mph46%30.01 "HgN/A
2:20 PM64 °FPassing clouds.9 mph49%30.01 "HgN/A
1:20 PM63 °FPassing clouds.8 mph56%30.01 "HgN/A
12:20 PM59 °FScattered clouds.6 mph72%30.04 "HgN/A
Weather by CustomWeather, © 2015

See weather overviewHow to use our weather pages